Starlink 2731

operational
NORAD ID: 48651 Int'l Des: 2021-044 Owner: SPXS Country: US Constellation: starlink
LEOCIRCULARSTARLINK_TYPE

Starlink 2731について

説明を読み込み中...

リアルタイム位置

3D地球を読み込み中...

次回通過

高度履歴

Altitude vs Time

uPlot chart will show altitude changes over time

軌道要素

1 48651U 21044P 25304.31051082 .00013627 00000-0 93178-3 0 9999
2 48651 53.0546 342.4220 0001468 98.0882 262.0273 15.06407261244206
Epoch: Oct 31, 2025 • Age: 11 hours

現在のステータス

高度 566.5 km
速度 7.58 km/s
衛星直下点 -52.89°S, 54.59°W
打ち上げ日 May 26, 2021
運用期間 4.4 years
タイプ internet

技術仕様

分類 Payload
質量 260.00 kg
乾燥質量 248.00 kg
総質量 260.00 kg
長さ 0.20 m
直径 2.80 m
スパン 9.00 m
形状 Box + pan
製造者 SPXS
バスタイプ Starlink
フェーズステータス In Orbit
所有者/国 SPXS/US

大規模コンステレーション

Loading constellations...